Wind_Speed
13 13 14 14 15 16 17 17 17 16 16 17 17 17 18 18 18 18 18 19 20 21 20 19 19 19 19 20 20 21 21 21 20 21 20 20 19 19
14 15 15 15 16 17 17 17 18 18 18 17 18 18 18 18 18 18 19 20 20 21 21 21 21 20 21 22 22 22 22 22 22 21 21 20 20 20
16 16 17 17 17 18 18 18 19 19 18 18 18 18 18 19 19 19 20 20 21 21 21 22 22 22 22 23 23 23 23 23 22 22 21 21 21 21
18 19 19 19 19 19 19 19 19 19 19 18 19 20 20 20 20 21 21 21 22 22 23 23 23 23 24 24 24 24 24 24 24 23 23 22 23 23
21 21 21 21 21 21 21 21 21 21 21 21 21 21 22 22 23 22 23 23 24 24 24 25 25 25 25 24 24 24 24 24 24 24 24 24 24 24
23 23 23 23 22 23 23 23 23 23 23 23 24 24 24 24 24 25 24 25 25 26 27 26 26 26 26 25 25 26 25 25 25 24 25 25 25 25
24 24 24 24 25 25 25 26 26 25 25 26 25 25 25 26 26 27 27 27 27 28 28 27 26 27 27 27 27 27 27 27 26 25 25 26 26 27
25 25 26 26 27 28 28 28 28 28 28 28 27 27 27 27 28 28 28 28 28 28 28 29 29 29 29 29 28 28 28 28 27 27 27 27 28 28
27 27 28 29 30 30 30 31 30 30 30 29 29 29 29 29 30 30 31 31 30 29 30 30 31 31 31 31 30 30 29 29 29 29 29 29 29 29
29 30 30 31 31 31 31 31 30 30 30 30 31 31 31 32 33 33 34 34 32 31 32 32 31 32 32 32 32 31 31 30 30 31 31 31 31 31
32 32 33 33 33 33 33 33 33 33 33 33 33 34 34 34 35 35 36 35 35 34 34 34 33 33 33 33 33 32 32 32 32 32 32 33 33 33
33 33 34 35 35 35 35 35 35 35 35 35 35 36 36 36 36 37 37 36 36 36 35 35 35 35 34 33 33 34 34 33 33 33 33 34 34 34
33 33 34 35 35 36 37 37 37 37 37 37 37 37 38 38 38 38 38 37 37 37 37 36 36 35 35 34 34 34 34 34 35 35 34 35 35 35
33 33 34 35 35 36 37 37 37 38 38 38 39 39 39 39 39 39 39 38 38 38 38 38 37 37 37 36 35 35 35 35 35 35 35 35 36 36
33 34 34 35 36 36 37 36 36 37 38 38 39 39 39 39 40 39 39 39 40 40 39 39 39 39 39 39 38 38 37 36 35 35 36 36 36 37
34 34 35 35 36 36 37 37 38 38 39 39 39 39 39 40 40 40 40 41 40 40 41 41 41 41 41 41 40 39 39 38 37 37 37 37 37 37
34 35 35 36 37 38 39 39 39 40 40 41 41 40 40 40 40 40 41 41 41 40 40 41 41 41 41 41 41 40 40 40 39 38 38 39 39 38
34 35 36 37 38 38 39 39 40 41 41 41 41 41 40 40 41 41 41 41 41 40 40 40 40 41 41 41 41 40 40 40 39 39 38 39 39 39
35 36 36 37 37 38 38 38 39 39 40 40 41 40 40 40 41 41 41 41 40 40 39 39 38 38 39 40 40 41 41 40 40 39 38 39 39 39
35 35 35 35 36 37 37 37 37 37 37 38 39 38 38 38 39 40 40 40 40 40 39 39 39 39 40 39 39 40 40 40 39 39 39 40 40 39
35 36 35 35 36 35 36 36 36 36 37 37 36 37 37 38 38 38 38 39 39 39 39 39 39 40 40 40 39 39 39 40 40 40 40 39 38 38
35 35 34 34 35 35 35 35 36 35 36 36 36 36 36 36 36 36 37 38 38 38 39 39 39 39 40 41 41 40 40 40 40 40 39 38 38 37
34 34 34 35 34 34 34 35 35 34 35 35 34 34 34 34 34 35 36 36 37 37 37 37 38 39 38 39 39 39 38 38 38 38 37 36 37 38
Wind_Direction
292 294 296 297 297 295 295 296 296 297 298 296 292 289 288 286 287 286 286 287 286 285 285 284 283 284 284 283 284 284 284 281 278 277 276 278 279 280
295 295 294 296 299 297 296 296 298 297 295 296 295 292 291 290 289 288 287 287 287 287 286 285 284 284 284 283 284 285 283 280 279 278 276 277 277 278
299 299 299 298 298 296 294 293 295 296 295 293 295 294 292 291 290 289 288 287 287 287 287 286 284 283 283 283 282 284 284 281 279 278 276 277 277 279
300 300 299 298 297 296 294 292 293 295 295 294 292 292 291 290 290 289 287 286 286 285 285 284 283 282 282 283 282 282 282 281 279 277 277 277 277 278
298 298 298 299 298 297 295 294 293 291 292 292 291 290 288 289 288 289 288 287 286 285 284 284 283 281 282 283 282 282 282 282 280 278 277 278 278 278
296 296 296 297 295 294 293 294 293 292 291 291 290 289 287 287 287 288 288 287 286 285 284 283 281 280 280 280 281 280 280 279 279 279 278 278 278 279
294 294 294 294 293 292 291 291 291 292 292 291 290 290 288 286 287 287 287 287 286 284 282 282 280 279 280 280 281 280 280 278 277 279 280 279 279 278
292 292 292 292 291 291 290 290 290 291 292 291 289 290 289 287 286 286 285 285 285 284 282 282 281 281 279 278 279 279 278 278 277 278 279 280 280 278
290 290 290 291 290 289 289 289 288 289 290 290 290 290 289 289 288 288 288 287 285 283 283 283 283 282 280 278 277 278 278 278 277 277 277 278 279 279
290 291 291 290 292 292 290 288 286 287 289 289 290 290 289 289 289 288 287 286 284 285 285 285 285 284 282 280 279 279 278 277 277 277 276 277 277 276
289 289 290 291 291 291 290 289 287 287 288 289 289 289 288 288 288 288 287 285 283 283 283 283 283 283 282 281 279 279 278 276 275 275 275 276 276 275
288 289 289 290 290 290 289 288 288 288 287 287 289 288 287 287 287 287 286 284 283 281 282 282 282 282 281 280 280 279 278 277 276 276 276 276 276 274
289 290 290 289 289 289 288 288 288 288 287 288 288 288 288 286 286 285 284 283 282 282 281 281 281 281 281 280 279 278 279 279 278 277 277 276 275 274
291 290 290 291 290 290 289 289 289 288 287 287 288 289 288 286 286 285 284 283 282 281 280 279 280 280 280 280 279 278 278 278 278 277 276 275 275 274
291 291 291 291 291 292 292 291 290 289 289 288 289 288 287 286 285 284 283 282 282 281 280 279 279 279 280 279 279 279 278 278 277 277 276 276 275 275
292 292 292 292 292 292 291 291 290 290 290 290 289 288 287 285 284 283 282 281 281 281 281 280 279 279 279 278 278 278 277 277 275 275 275 276 276 275
294 293 292 292 292 292 292 291 290 290 289 289 289 288 287 286 285 284 283 282 281 281 280 280 279 279 278 278 277 277 277 277 275 274 274 275 276 275
297 296 295 294 294 294 294 294 292 290 288 288 288 287 285 285 285 285 284 283 282 281 280 279 278 278 277 277 277 276 277 277 276 275 275 275 274 273
298 298 298 298 298 297 296 295 294 292 291 290 289 288 286 286 286 285 285 284 283 281 280 279 279 279 279 276 276 276 277 277 277 276 275 274 275 274
300 300 299 299 299 299 297 296 295 294 293 292 290 288 287 287 286 284 283 282 283 282 281 281 281 281 282 279 277 277 278 279 278 277 275 275 275 274
301 302 302 301 300 298 297 297 296 295 295 294 292 291 289 287 286 286 285 283 283 282 282 281 282 282 281 281 279 277 277 277 278 278 277 275 274 273
303 302 302 303 302 300 299 299 298 297 297 297 295 293 291 290 288 288 287 285 284 284 283 282 282 282 281 280 279 277 276 275 275 276 276 274 273 273
303 302 302 302 302 302 302 302 302 300 299 298 297 296 294 293 292 291 290 288 286 285 285 284 283 283 281 281 280 279 277 275 275 275 274 273 272 273
Height
5877 5877 5876 5875 5874 5873 5872 5871 5870 5869 5868 5867 5866 5865 5865 5865 5864 5863 5863 5862 5861 5861 5860 5860 5859 5858 5858 5857 5856 5855 5854 5854 5854 5853 5853 5853 5853 5852
5874 5873 5872 5871 5870 5869 5868 5867 5866 5865 5864 5862 5861 5860 5860 5859 5859 5858 5858 5857 5856 5855 5854 5854 5853 5852 5852 5851 5850 5849 5848 5848 5848 5847 5847 5847 5847 5846
5870 5869 5868 5867 5866 5865 5864 5862 5861 5860 5859 5858 5857 5856 5855 5854 5854 5853 5852 5851 5850 5850 5849 5848 5847 5846 5845 5845 5844 5843 5842 5842 5841 5841 5841 5841 5840 5840
5866 5865 5864 5863 5862 5860 5859 5858 5856 5855 5854 5853 5852 5851 5850 5849 5848 5847 5846 5846 5845 5844 5843 5842 5841 5840 5839 5838 5837 5836 5836 5835 5834 5834 5834 5834 5834 5833
5861 5860 5859 5858 5856 5855 5854 5853 5851 5850 5849 5848 5847 5846 5845 5844 5843 5842 5840 5839 5838 5837 5836 5835 5834 5833 5832 5831 5830 5829 5828 5828 5827 5826 5826 5826 5826 5826
5856 5855 5853 5852 5851 5849 5848 5847 5846 5844 5843 5842 5841 5840 5839 5837 5836 5835 5834 5833 5831 5830 5829 5828 5827 5826 5825 5824 5823 5822 5821 5821 5820 5819 5819 5819 5819 5818
5850 5849 5848 5846 5845 5843 5842 5841 5840 5838 5837 5835 5834 5833 5832 5831 5829 5828 5827 5825 5824 5822 5821 5820 5819 5819 5817 5816 5815 5814 5814 5813 5813 5812 5812 5811 5811 5810
5844 5843 5842 5840 5839 5837 5835 5834 5833 5832 5830 5828 5827 5826 5825 5823 5821 5819 5818 5817 5816 5815 5813 5812 5811 5810 5809 5808 5807 5807 5806 5805 5805 5804 5804 5803 5803 5802
5837 5835 5834 5833 5831 5830 5828 5827 5825 5824 5823 5821 5819 5817 5816 5815 5813 5812 5810 5808 5807 5806 5805 5803 5802 5801 5800 5799 5799 5798 5797 5796 5796 5796 5795 5795 5794 5794
5829 5827 5826 5824 5823 5821 5820 5818 5817 5816 5814 5812 5811 5809 5808 5806 5804 5803 5801 5799 5798 5797 5795 5795 5793 5792 5791 5790 5789 5788 5787 5787 5786 5786 5786 5785 5785 5784
5821 5819 5817 5815 5814 5812 5811 5810 5808 5807 5805 5803 5802 5800 5798 5796 5794 5792 5791 5789 5788 5787 5786 5784 5784 5783 5782 5780 5779 5778 5777 5777 5776 5776 5775 5775 5774 5774
5812 5810 5808 5807 5805 5803 5801 5800 5798 5797 5795 5793 5791 5790 5788 5786 5784 5782 5780 5778 5777 5776 5776 5774 5773 5772 5771 5770 5769 5768 5767 5766 5766 5765 5765 5764 5764 5763
5802 5801 5799 5797 5795 5793 5791 5790 5788 5786 5784 5783 5781 5779 5777 5775 5773 5771 5769 5767 5766 5765 5764 5763 5762 5760 5759 5759 5759 5757 5757 5756 5755 5754 5754 5753 5752 5752
5793 5791 5789 5787 5785 5783 5781 5779 5777 5775 5773 5771 5769 5768 5766 5764 5762 5760 5757 5756 5754 5754 5752 5751 5750 5749 5748 5748 5747 5746 5745 5744 5744 5743 5743 5742 5741 5740
5783 5781 5778 5776 5774 5772 5769 5768 5766 5764 5762 5760 5758 5756 5754 5752 5750 5748 5746 5745 5743 5741 5740 5739 5738 5737 5736 5735 5735 5734 5734 5733 5732 5731 5731 5730 5729 5729
5773 5771 5768 5766 5764 5761 5759 5757 5754 5752 5750 5748 5746 5744 5742 5740 5738 5736 5735 5733 5731 5730 5728 5727 5725 5724 5723 5722 5722 5721 5720 5721 5721 5720 5719 5718 5717 5716
5763 5761 5758 5756 5753 5750 5748 5745 5742 5740 5738 5736 5733 5731 5729 5727 5725 5724 5722 5720 5719 5717 5716 5715 5713 5712 5711 5710 5709 5709 5708 5707 5707 5707 5706 5706 5705 5704
5753 5750 5747 5745 5742 5739 5736 5733 5730 5728 5725 5723 5721 5718 5716 5714 5712 5710 5709 5707 5706 5704 5703 5702 5700 5699 5698 5697 5696 5695 5695 5694 5694 5693 5692 5692 5692 5691
5743 5740 5737 5734 5731 5727 5724 5721 5718 5715 5712 5710 5708 5705 5703 5701 5699 5698 5696 5694 5692 5691 5690 5689 5687 5686 5685 5684 5684 5682 5681 5681 5680 5680 5679 5678 5678 5678
5733 5730 5726 5723 5720 5717 5713 5710 5707 5704 5700 5697 5695 5693 5691 5689 5687 5685 5683 5681 5680 5678 5677 5676 5674 5673 5672 5672 5671 5670 5668 5667 5667 5666 5665 5664 5664 5664
5724 5721 5717 5713 5710 5706 5703 5699 5696 5693 5689 5685 5682 5680 5678 5676 5674 5672 5670 5668 5667 5665 5664 5663 5661 5660 5659 5658 5657 5657 5655 5654 5653 5653 5652 5651 5651 5651
5714 5711 5707 5703 5700 5696 5693 5689 5686 5682 5679 5675 5672 5669 5666 5664 5662 5660 5658 5656 5654 5652 5651 5649 5648 5646 5645 5643 5643 5642 5642 5640 5639 5639 5638 5638 5638 5638
5706 5702 5697 5694 5690 5686 5683 5679 5675 5672 5669 5665 5661 5658 5655 5653 5650 5648 5646 5643 5641 5640 5638 5637 5635 5633 5631 5630 5629 5628 5628 5627 5626 5626 5626 5625 5625 5625